GCOM-W1 (SHIZUKU)       
1 38337U 12025A   19260.95993573  .00000023  00000-0  15065-4 0  9998
2 38337  98.2085 199.8339 0002541  79.2465 323.1640 14.57126215390178
ARIRANG-3 (KOMPSAT-3)   
1 38338U 12025B   19261.10420798  .00000013  00000-0  11975-4 0  9996
2 38338  98.1645 197.8161 0008764 278.7400  81.2804 14.61769190391398
SDS-4                   
1 38339U 12025C   19260.63478717  .00000031  00000-0  13763-4 0  9995
2 38339  98.3826 288.9197 0007217 195.3947 164.7040 14.70526479393386
HORYU-2                 
1 38340U 12025D   19261.11034544  .00000112  00000-0  24308-4 0  9994
2 38340  98.3215 302.4080 0011391 186.5165 173.5897 14.75748457394640
H-2A R/B                
1 38341U 12025E   19260.83017802  .00000109  00000-0  20322-4 0  9999
2 38341  98.4633  33.7881 0056199  32.6327 327.8338 14.83923995396877
H-2A DEB                
1 38345U 12025F   19260.72076777  .00000303  00000-0  44434-4 0  9993
2 38345  98.2840 311.1682 0007308  81.2836 278.9204 14.82974297395512
H-2A DEB                
1 38346U 12025G   19260.73749758  .00000319  00000-0  47657-4 0  9998
2 38346  98.2846 309.7594 0007435  87.7721 272.4342 14.81776709395204
H-2A DEB                
1 38347U 12025H   19261.13594728  .00000134  00000-0  27665-4 0  9991
2 38347  98.3293 298.9589 0010352 128.8902 231.3231 14.75585974394491
H-2A DEB                
1 43399U 12025S   19261.15311085  .00015762  00000-0  12545-2 0  9991
2 43399  98.4609 314.3212 0019122 115.9682 244.3511 15.00350791124119